Time,TemperatureF,DewpointF,PressureIn,WindDirection,WindDirectionDegrees,WindSpeedMPH,WindSpeedGustMPH,Humidity,HourlyPrecipIn,Conditions,Clouds,dailyrainin,SoftwareType,DateUTC
2013-07-17 00:01:00,81.4,75.4,30.15,WSW,243,4.0,12.0,82,0.00,,CLR,0.00,VWS V13.01,2013-07-17 04:01:00,
2013-07-17 00:06:00,81.3,74.9,30.15,WNW,287,3.0,11.0,81,0.00,,CLR,0.00,VWS V13.01,2013-07-17 04:06:00,
2013-07-17 00:11:00,81.3,75.3,30.16,WSW,250,7.0,7.0,82,0.00,,CLR,0.00,VWS V13.01,2013-07-17 04:11:00,
2013-07-17 00:16:00,81.2,74.8,30.15,WSW,247,4.0,8.0,81,0.00,,CLR,0.00,VWS V13.01,2013-07-17 04:16:00,
2013-07-17 00:21:00,81.2,74.8,30.15,WNW,290,4.0,9.0,81,0.00,,CLR,0.00,VWS V13.01,2013-07-17 04:21:00,
2013-07-17 00:26:00,81.2,74.8,30.15,West,277,4.0,9.0,81,0.00,,CLR,0.00,VWS V13.01,2013-07-17 04:26:00,
2013-07-17 00:31:00,81.1,74.7,30.16,West,281,6.0,9.0,81,0.00,,CLR,0.00,VWS V13.01,2013-07-17 04:31:00,
2013-07-17 00:36:00,81.1,74.7,30.16,WNW,298,5.0,10.0,81,0.00,,CLR,0.00,VWS V13.01,2013-07-17 04:36:00,
2013-07-17 00:41:00,81.0,74.6,30.16,West,265,3.0,8.0,81,0.00,,CLR,0.00,VWS V13.01,2013-07-17 04:41:00,
2013-07-17 00:46:00,80.9,74.5,30.16,WSW,249,3.0,8.0,81,0.00,,CLR,0.00,VWS V13.01,2013-07-17 04:46:00,
2013-07-17 00:52:00,80.8,74.4,30.16,WNW,282,5.0,9.0,81,0.00,,CLR,0.00,VWS V13.01,2013-07-17 04:52:00,
2013-07-17 00:55:00,80.8,74.4,30.16,WNW,302,3.0,9.0,81,0.00,,CLR,0.00,VWS V13.01,2013-07-17 04:55:00,
2013-07-17 00:59:00,80.7,74.3,30.17,West,269,6.0,9.0,81,0.00,,CLR,0.00,VWS V13.01,2013-07-17 04:59:00,
2013-07-17 01:04:00,80.5,74.1,30.17,WNW,288,4.0,6.0,81,0.00,,CLR,0.00,VWS V13.01,2013-07-17 05:04:00,
2013-07-17 01:09:00,80.3,73.9,30.16,NW,311,4.0,7.0,81,0.00,,CLR,0.00,VWS V13.01,2013-07-17 05:09:00,
2013-07-17 01:14:00,80.2,74.2,30.17,WNW,302,4.0,8.0,82,0.00,,CLR,0.00,VWS V13.01,2013-07-17 05:14:00,
2013-07-17 01:19:00,80.0,74.0,30.17,WNW,285,3.0,9.0,82,0.00,,CLR,0.00,VWS V13.01,2013-07-17 05:19:00,
2013-07-17 01:24:00,79.8,73.8,30.16,WNW,296,3.0,9.0,82,0.00,,CLR,0.00,VWS V13.01,2013-07-17 05:24:00,
2013-07-17 01:29:00,79.7,74.1,30.17,NW,306,2.0,9.0,83,0.00,,CLR,0.00,VWS V13.01,2013-07-17 05:29:00,
2013-07-17 01:34:00,79.5,73.9,30.16,WNW,286,3.0,5.0,83,0.00,,CLR,0.00,VWS V13.01,2013-07-17 05:34:00,
2013-07-17 01:39:00,79.4,73.8,30.16,WNW,298,4.0,7.0,83,0.00,,CLR,0.00,VWS V13.01,2013-07-17 05:39:00,
2013-07-17 01:44:00,79.3,74.1,30.17,WNW,286,1.0,7.0,84,0.00,,CLR,0.00,VWS V13.01,2013-07-17 05:44:00,
2013-07-17 01:49:00,79.2,73.9,30.17,West,275,3.0,8.0,84,0.00,,CLR,0.00,VWS V13.01,2013-07-17 05:49:00,
2013-07-17 01:54:00,79.1,73.8,30.17,West,279,4.0,9.0,84,0.00,,CLR,0.00,VWS V13.01,2013-07-17 05:54:00,
2013-07-17 01:59:00,79.0,73.8,30.17,WNW,296,3.0,7.0,84,0.00,,CLR,0.00,VWS V13.01,2013-07-17 05:59:00,
2013-07-17 02:04:00,79.0,73.8,30.17,WNW,296,3.0,6.0,84,0.00,,CLR,0.00,VWS V13.01,2013-07-17 06:04:00,
2013-07-17 02:09:00,78.9,73.7,30.17,West,264,1.0,5.0,84,0.00,,CLR,0.00,VWS V13.01,2013-07-17 06:09:00,
2013-07-17 02:14:00,78.8,73.9,30.17,WNW,284,2.0,6.0,85,0.00,,CLR,0.00,VWS V13.01,2013-07-17 06:14:00,
2013-07-17 02:19:00,78.6,73.7,30.17,WNW,295,2.0,6.0,85,0.00,,CLR,0.00,VWS V13.01,2013-07-17 06:19:00,
2013-07-17 02:24:00,78.4,73.5,30.17,West,263,1.0,7.0,85,0.00,,CLR,0.00,VWS V13.01,2013-07-17 06:24:00,
2013-07-17 02:29:00,78.3,73.8,30.16,West,273,0.0,6.0,86,0.00,,CLR,0.00,VWS V13.01,2013-07-17 06:29:00,
2013-07-17 02:34:00,78.2,73.7,30.16,West,267,2.0,5.0,86,0.00,,CLR,0.00,VWS V13.01,2013-07-17 06:34:00,
2013-07-17 02:39:00,78.1,73.6,30.16,WSW,248,4.0,6.0,86,0.00,,CLR,0.00,VWS V13.01,2013-07-17 06:39:00,
2013-07-17 02:44:00,78.0,73.5,30.16,WNW,291,0.0,6.0,86,0.00,,CLR,0.00,VWS V13.01,2013-07-17 06:44:00,
2013-07-17 02:49:00,78.0,73.5,30.16,WSW,252,0.0,4.0,86,0.00,,CLR,0.00,VWS V13.01,2013-07-17 06:49:00,
2013-07-17 02:54:00,77.9,73.4,30.16,West,279,2.0,4.0,86,0.00,,CLR,0.00,VWS V13.01,2013-07-17 06:54:00,
2013-07-17 02:59:00,77.8,73.6,30.16,WSW,250,3.0,4.0,87,0.00,,CLR,0.00,VWS V13.01,2013-07-17 06:59:00,
2013-07-17 03:04:00,77.7,73.9,30.16,West,259,3.0,4.0,88,0.00,,CLR,0.00,VWS V13.01,2013-07-17 07:04:00,
2013-07-17 03:09:00,77.6,73.8,30.16,SW,234,3.0,3.0,88,0.00,,CLR,0.00,VWS V13.01,2013-07-17 07:09:00,
2013-07-17 03:14:00,77.5,73.7,30.16,WSW,241,3.0,5.0,88,0.00,,CLR,0.00,VWS V13.01,2013-07-17 07:14:00,
2013-07-17 03:20:00,77.4,74.2,30.16,WSW,241,3.0,4.0,90,0.00,,CLR,0.00,VWS V13.01,2013-07-17 07:20:00,
2013-07-17 03:25:00,77.2,73.7,30.16,WSW,241,4.0,5.0,89,0.00,,CLR,0.00,VWS V13.01,2013-07-17 07:25:00,
2013-07-17 03:30:00,77.0,73.5,30.16,WSW,242,2.0,5.0,89,0.00,,CLR,0.00,VWS V13.01,2013-07-17 07:30:00,
2013-07-17 03:35:00,76.9,73.8,30.16,WSW,242,1.0,4.0,90,0.00,,CLR,0.00,VWS V13.01,2013-07-17 07:35:00,
2013-07-17 03:40:00,76.8,73.7,30.16,WSW,242,2.0,3.0,90,0.00,,CLR,0.00,VWS V13.01,2013-07-17 07:40:00,
2013-07-17 03:45:00,76.7,73.6,30.16,WSW,242,1.0,2.0,90,0.00,,CLR,0.00,VWS V13.01,2013-07-17 07:45:00,
2013-07-17 03:50:00,76.5,73.3,30.16,WSW,242,1.0,3.0,90,0.00,,CLR,0.00,VWS V13.01,2013-07-17 07:50:00,
2013-07-17 03:55:00,76.5,73.7,30.16,WSW,242,3.0,3.0,91,0.00,,CLR,0.00,VWS V13.01,2013-07-17 07:55:00,
2013-07-17 04:00:00,76.4,73.6,30.16,WSW,242,3.0,3.0,91,0.00,,CLR,0.00,VWS V13.01,2013-07-17 08:00:00,
2013-07-17 04:05:00,76.4,73.6,30.16,WSW,242,2.0,4.0,91,0.00,,CLR,0.00,VWS V13.01,2013-07-17 08:05:00,
2013-07-17 04:10:00,76.3,73.5,30.16,WSW,242,2.0,4.0,91,0.00,,CLR,0.00,VWS V13.01,2013-07-17 08:10:00,
2013-07-17 04:15:00,76.2,73.4,30.16,WSW,242,2.0,4.0,91,0.00,,CLR,0.00,VWS V13.01,2013-07-17 08:15:00,
2013-07-17 04:20:00,76.0,73.2,30.16,WSW,249,2.0,4.0,91,0.00,,CLR,0.00,VWS V13.01,2013-07-17 08:20:00,
2013-07-17 04:25:00,75.9,73.1,30.16,WSW,251,2.0,4.0,91,0.00,,CLR,0.00,VWS V13.01,2013-07-17 08:25:00,
2013-07-17 04:30:00,75.8,73.0,30.16,WSW,251,0.0,2.0,91,0.00,,CLR,0.00,VWS V13.01,2013-07-17 08:30:00,
2013-07-17 04:35:00,75.7,72.9,30.17,WSW,251,0.0,1.0,91,0.00,,CLR,0.00,VWS V13.01,2013-07-17 08:35:00,
2013-07-17 04:40:00,75.6,72.8,30.16,WSW,251,0.0,1.0,91,0.00,,CLR,0.00,VWS V13.01,2013-07-17 08:40:00,
2013-07-17 04:45:00,75.4,72.6,30.17,WSW,251,0.0,0.0,91,0.00,,CLR,0.00,VWS V13.01,2013-07-17 08:45:00,
2013-07-17 04:50:00,75.3,72.5,30.17,WSW,251,0.0,0.0,91,0.00,,CLR,0.00,VWS V13.01,2013-07-17 08:50:00,
2013-07-17 04:55:00,75.2,72.4,30.17,WSW,251,0.0,2.0,91,0.00,,CLR,0.00,VWS V13.01,2013-07-17 08:55:00,
2013-07-17 05:00:00,75.1,72.3,30.17,WSW,251,0.0,0.0,91,0.00,,CLR,0.00,VWS V13.01,2013-07-17 09:00:00,
2013-07-17 05:05:00,75.0,72.5,30.17,WSW,251,0.0,1.0,92,0.00,,CLR,0.00,VWS V13.01,2013-07-17 09:05:00,
2013-07-17 05:10:00,75.0,72.5,30.17,WSW,252,0.0,3.0,92,0.00,,CLR,0.00,VWS V13.01,2013-07-17 09:10:00,
2013-07-17 05:15:00,75.0,72.5,30.16,WSW,252,2.0,3.0,92,0.00,,CLR,0.00,VWS V13.01,2013-07-17 09:15:00,
2013-07-17 05:20:00,75.0,72.5,30.17,WSW,252,0.0,3.0,92,0.00,,CLR,0.00,VWS V13.01,2013-07-17 09:20:00,
2013-07-17 05:25:00,75.0,72.5,30.16,WSW,254,1.0,2.0,92,0.00,,CLR,0.00,VWS V13.01,2013-07-17 09:25:00,
2013-07-17 05:30:00,75.0,72.5,30.17,WSW,254,1.0,3.0,92,0.00,,CLR,0.00,VWS V13.01,2013-07-17 09:30:00,
2013-07-17 05:35:00,75.0,72.2,30.17,WSW,256,0.0,2.0,91,0.00,,CLR,0.00,VWS V13.01,2013-07-17 09:35:00,
2013-07-17 05:40:00,75.0,72.2,30.17,WSW,256,0.0,2.0,91,0.00,,CLR,0.00,VWS V13.01,2013-07-17 09:40:00,
2013-07-17 05:45:00,75.1,72.6,30.17,WSW,254,3.0,4.0,92,0.00,,CLR,0.00,VWS V13.01,2013-07-17 09:45:00,
2013-07-17 05:50:00,75.2,72.7,30.17,WSW,254,0.0,3.0,92,0.00,,CLR,0.00,VWS V13.01,2013-07-17 09:50:00,
2013-07-17 05:56:00,75.1,72.6,30.17,WSW,246,3.0,4.0,92,0.00,,CLR,0.00,VWS V13.01,2013-07-17 09:56:00,
2013-07-17 06:01:00,75.2,73.0,30.17,SW,233,4.0,4.0,93,0.00,,BKN090,0.00,VWS V13.01,2013-07-17 10:01:00,
2013-07-17 06:06:00,75.1,72.6,30.17,SW,233,3.0,4.0,92,0.00,,BKN090,0.00,VWS V13.01,2013-07-17 10:06:00,
2013-07-17 06:11:00,75.1,72.6,30.17,SW,233,3.0,4.0,92,0.00,,BKN090,0.00,VWS V13.01,2013-07-17 10:11:00,
2013-07-17 06:16:00,75.2,73.0,30.17,SW,233,3.0,5.0,93,0.00,,BKN090,0.00,VWS V13.01,2013-07-17 10:16:00,
2013-07-17 06:21:00,75.2,72.7,30.17,WSW,239,3.0,5.0,92,0.00,,BKN090,0.00,VWS V13.01,2013-07-17 10:21:00,
2013-07-17 06:26:00,75.2,73.0,30.18,WSW,243,4.0,5.0,93,0.00,,BKN090,0.00,VWS V13.01,2013-07-17 10:26:00,
2013-07-17 06:31:00,75.0,72.5,30.18,WNW,284,0.0,4.0,92,0.00,,BKN090,0.00,VWS V13.01,2013-07-17 10:31:00,
2013-07-17 06:36:00,74.9,72.4,30.17,WSW,242,2.0,4.0,92,0.00,,BKN090,0.00,VWS V13.01,2013-07-17 10:36:00,
2013-07-17 06:41:00,74.9,72.4,30.18,WSW,248,0.0,5.0,92,0.00,,BKN090,0.00,VWS V13.01,2013-07-17 10:41:00,
2013-07-17 06:46:00,74.9,72.4,30.18,WSW,248,2.0,5.0,92,0.00,,BKN090,0.00,VWS V13.01,2013-07-17 10:46:00,
2013-07-17 06:51:00,75.0,72.5,30.18,WSW,248,4.0,4.0,92,0.00,,BKN090,0.00,VWS V13.01,2013-07-17 10:51:00,
2013-07-17 06:56:00,75.1,72.6,30.18,WSW,252,3.0,5.0,92,0.00,,BKN090,0.00,VWS V13.01,2013-07-17 10:56:00,
2013-07-17 07:01:00,75.1,72.6,30.18,WSW,252,2.0,5.0,92,0.00,,FEW120,0.00,VWS V13.01,2013-07-17 11:01:00,
2013-07-17 07:06:00,75.1,72.6,30.18,SW,235,3.0,4.0,92,0.00,,FEW120,0.00,VWS V13.01,2013-07-17 11:06:00,
2013-07-17 07:11:00,75.2,72.7,30.18,WSW,237,3.0,5.0,92,0.00,,FEW120,0.00,VWS V13.01,2013-07-17 11:11:00,
2013-07-17 07:16:00,75.2,72.7,30.18,WSW,238,4.0,5.0,92,0.00,,FEW120,0.00,VWS V13.01,2013-07-17 11:16:00,
2013-07-17 07:21:00,75.2,72.7,30.18,SW,236,4.0,6.0,92,0.00,,FEW120,0.00,VWS V13.01,2013-07-17 11:21:00,
2013-07-17 07:26:00,75.3,72.8,30.18,SW,232,3.0,6.0,92,0.00,,FEW120,0.00,VWS V13.01,2013-07-17 11:26:00,
2013-07-17 07:31:00,75.4,72.9,30.18,SW,230,4.0,5.0,92,0.00,,FEW120,0.00,VWS V13.01,2013-07-17 11:31:00,
2013-07-17 07:36:00,75.5,72.7,30.18,WSW,240,4.0,5.0,91,0.00,,FEW120,0.00,VWS V13.01,2013-07-17 11:36:00,
2013-07-17 07:41:00,75.5,73.0,30.18,WSW,242,2.0,5.0,92,0.00,,FEW120,0.00,VWS V13.01,2013-07-17 11:41:00,
2013-07-17 07:46:00,75.7,72.9,30.18,WSW,240,2.0,5.0,91,0.00,,FEW120,0.00,VWS V13.01,2013-07-17 11:46:00,
2013-07-17 07:51:00,75.9,72.8,30.18,WSW,251,3.0,6.0,90,0.00,,FEW120,0.00,VWS V13.01,2013-07-17 11:51:00,
2013-07-17 07:56:00,76.0,72.9,30.18,WSW,254,2.0,5.0,90,0.00,,FEW120,0.00,VWS V13.01,2013-07-17 11:56:00,
2013-07-17 08:01:00,76.2,72.7,30.17,WSW,252,2.0,6.0,89,0.00,,CLR,0.00,VWS V13.01,2013-07-17 12:01:00,
2013-07-17 08:06:00,76.5,73.0,30.17,WSW,254,2.0,5.0,89,0.00,,CLR,0.00,VWS V13.01,2013-07-17 12:06:00,
2013-07-17 08:12:00,76.9,73.1,30.17,West,275,0.0,5.0,88,0.00,,CLR,0.00,VWS V13.01,2013-07-17 12:12:00,
2013-07-17 08:17:00,77.5,73.7,30.17,WNW,288,3.0,5.0,88,0.00,,CLR,0.00,VWS V13.01,2013-07-17 12:17:00,
2013-07-17 08:22:00,77.9,73.7,30.17,West,261,3.0,6.0,87,0.00,,CLR,0.00,VWS V13.01,2013-07-17 12:22:00,
2013-07-17 08:27:00,78.4,73.9,30.17,WSW,249,6.0,8.0,86,0.00,,CLR,0.00,VWS V13.01,2013-07-17 12:27:00,
2013-07-17 08:32:00,78.9,74.0,30.17,West,268,4.0,7.0,85,0.00,,CLR,0.00,VWS V13.01,2013-07-17 12:32:00,
2013-07-17 08:37:00,79.3,74.1,30.17,West,277,2.0,7.0,84,0.00,,CLR,0.00,VWS V13.01,2013-07-17 12:37:00,
2013-07-17 08:42:00,79.8,74.5,30.17,SW,232,3.0,8.0,84,0.00,,CLR,0.00,VWS V13.01,2013-07-17 12:42:00,
2013-07-17 08:47:00,80.1,74.5,30.17,WNW,296,6.0,8.0,83,0.00,,CLR,0.00,VWS V13.01,2013-07-17 12:47:00,
2013-07-17 08:52:00,80.4,74.4,30.17,West,265,5.0,7.0,82,0.00,,CLR,0.00,VWS V13.01,2013-07-17 12:52:00,
2013-07-17 08:57:00,80.5,74.5,30.17,WSW,244,7.0,7.0,82,0.00,,CLR,0.00,VWS V13.01,2013-07-17 12:57:00,
2013-07-17 09:02:00,80.6,74.6,30.17,WNW,293,4.0,8.0,82,0.00,,CLR,0.00,VWS V13.01,2013-07-17 13:02:00,
2013-07-17 09:03:00,80.6,74.6,30.17,WNW,298,4.0,8.0,82,0.00,,CLR,0.00,VWS V13.01,2013-07-17 13:03:00,
2013-07-17 09:08:00,81.1,74.7,30.17,NW,306,5.0,9.0,81,0.00,,CLR,0.00,VWS V13.01,2013-07-17 13:08:00,
2013-07-17 09:13:00,81.4,75.0,30.17,West,269,2.0,6.0,81,0.00,,CLR,0.00,VWS V13.01,2013-07-17 13:13:00,
2013-07-17 09:18:00,81.8,75.0,30.17,West,275,3.0,7.0,80,0.00,,CLR,0.00,VWS V13.01,2013-07-17 13:18:00,
2013-07-17 09:23:00,82.2,75.4,30.17,WSW,246,7.0,8.0,80,0.00,,CLR,0.00,VWS V13.01,2013-07-17 13:23:00,
2013-07-17 09:28:00,82.5,75.3,30.17,WNW,300,8.0,10.0,79,0.00,,CLR,0.00,VWS V13.01,2013-07-17 13:28:00,
2013-07-17 09:33:00,83.0,75.4,30.17,West,274,1.0,7.0,78,0.00,,CLR,0.00,VWS V13.01,2013-07-17 13:33:00,
2013-07-17 09:38:00,83.4,75.4,30.17,WNW,287,3.0,7.0,77,0.00,,CLR,0.00,VWS V13.01,2013-07-17 13:38:00,
2013-07-17 09:43:00,83.6,75.6,30.17,SW,225,5.0,10.0,77,0.00,,CLR,0.00,VWS V13.01,2013-07-17 13:43:00,
2013-07-17 09:48:00,83.9,75.5,30.17,NW,311,3.0,7.0,76,0.00,,CLR,0.00,VWS V13.01,2013-07-17 13:48:00,
2013-07-17 09:53:00,84.2,75.8,30.17,West,276,7.0,9.0,76,0.00,,CLR,0.00,VWS V13.01,2013-07-17 13:53:00,
2013-07-17 09:58:00,84.5,75.7,30.17,WNW,291,8.0,10.0,75,0.00,,CLR,0.00,VWS V13.01,2013-07-17 13:58:00,
2013-07-17 10:03:00,84.9,76.1,30.17,West,265,7.0,8.0,75,0.00,,FEW065,0.00,VWS V13.01,2013-07-17 14:03:00,
2013-07-17 10:08:00,84.7,75.9,30.17,NW,306,2.0,9.0,75,0.00,,FEW065,0.00,VWS V13.01,2013-07-17 14:08:00,
2013-07-17 10:13:00,85.3,76.1,30.17,WSW,246,5.0,7.0,74,0.00,,FEW065,0.00,VWS V13.01,2013-07-17 14:13:00,
2013-07-17 10:19:00,85.4,75.8,30.17,WNW,292,4.0,9.0,73,0.00,,FEW065,0.00,VWS V13.01,2013-07-17 14:19:00,
2013-07-17 10:24:00,85.3,75.7,30.17,WSW,250,7.0,8.0,73,0.00,,FEW065,0.00,VWS V13.01,2013-07-17 14:24:00,
2013-07-17 10:29:00,85.1,75.9,30.16,WSW,246,7.0,9.0,74,0.00,,FEW065,0.00,VWS V13.01,2013-07-17 14:29:00,
2013-07-17 10:34:00,85.2,76.0,30.16,WSW,249,6.0,9.0,74,0.00,,FEW065,0.00,VWS V13.01,2013-07-17 14:34:00,
2013-07-17 10:39:00,84.2,76.2,30.16,SW,235,6.0,7.0,77,0.00,,FEW065,0.00,VWS V13.01,2013-07-17 14:39:00,
2013-07-17 10:44:00,84.7,76.3,30.16,WSW,242,7.0,8.0,76,0.00,,FEW065,0.00,VWS V13.01,2013-07-17 14:44:00,
2013-07-17 10:49:00,85.5,76.3,30.16,WSW,242,4.0,9.0,74,0.00,,FEW065,0.00,VWS V13.01,2013-07-17 14:49:00,
2013-07-17 10:54:00,85.7,76.1,30.16,WSW,238,6.0,9.0,73,0.00,,FEW065,0.00,VWS V13.01,2013-07-17 14:54:00,
2013-07-17 10:59:00,86.0,76.3,30.16,WSW,238,3.0,9.0,73,0.00,,FEW065,0.00,VWS V13.01,2013-07-17 14:59:00,
2013-07-17 11:04:00,87.1,76.1,30.16,WNW,293,7.0,10.0,70,0.00,,CLR,0.00,VWS V13.01,2013-07-17 15:04:00,
2013-07-17 11:09:00,87.7,76.3,30.16,West,273,6.0,14.0,69,0.00,,CLR,0.00,VWS V13.01,2013-07-17 15:09:00,
2013-07-17 11:14:00,87.6,75.7,30.16,WSW,252,6.0,9.0,68,0.00,,CLR,0.00,VWS V13.01,2013-07-17 15:14:00,
2013-07-17 11:19:00,87.8,76.4,30.16,SW,233,4.0,12.0,69,0.00,,CLR,0.00,VWS V13.01,2013-07-17 15:19:00,
2013-07-17 11:24:00,88.1,76.2,30.16,West,265,3.0,8.0,68,0.00,,CLR,0.00,VWS V13.01,2013-07-17 15:24:00,
2013-07-17 11:29:00,87.9,75.6,30.16,SW,228,0.0,7.0,67,0.00,,CLR,0.00,VWS V13.01,2013-07-17 15:29:00,
2013-07-17 11:34:00,88.4,74.7,30.16,WSW,250,3.0,10.0,64,0.00,,CLR,0.00,VWS V13.01,2013-07-17 15:34:00,
2013-07-17 11:39:00,89.0,75.2,30.15,NNW,329,3.0,8.0,64,0.00,,CLR,0.00,VWS V13.01,2013-07-17 15:39:00,
2013-07-17 11:44:00,90.0,74.8,30.15,WSW,244,2.0,7.0,61,0.00,,CLR,0.00,VWS V13.01,2013-07-17 15:44:00,
2013-07-17 11:49:00,90.6,74.8,30.15,West,273,6.0,9.0,60,0.00,,CLR,0.00,VWS V13.01,2013-07-17 15:49:00,
2013-07-17 11:54:00,90.6,74.8,30.15,WSW,257,6.0,8.0,60,0.00,,CLR,0.00,VWS V13.01,2013-07-17 15:54:00,
2013-07-17 11:59:00,90.2,73.9,30.15,West,275,3.0,13.0,59,0.00,,CLR,0.00,VWS V13.01,2013-07-17 15:59:00,
2013-07-17 12:04:00,90.0,74.3,30.15,WSW,241,9.0,11.0,60,0.00,,BKN045,0.00,VWS V13.01,2013-07-17 16:04:00,
2013-07-17 12:09:00,89.2,74.0,30.15,WSW,250,8.0,12.0,61,0.00,,BKN045,0.00,VWS V13.01,2013-07-17 16:09:00,
2013-07-17 12:14:00,89.3,73.6,30.15,WSW,257,4.0,10.0,60,0.00,,BKN045,0.00,VWS V13.01,2013-07-17 16:14:00,
2013-07-17 12:19:00,88.6,74.4,30.15,WSW,251,7.0,9.0,63,0.00,,BKN045,0.00,VWS V13.01,2013-07-17 16:19:00,
2013-07-17 12:24:00,89.1,73.9,30.15,WNW,288,9.0,11.0,61,0.00,,BKN045,0.00,VWS V13.01,2013-07-17 16:24:00,
2013-07-17 12:29:00,90.8,72.9,30.15,NNW,331,3.0,12.0,56,0.00,,BKN045,0.00,VWS V13.01,2013-07-17 16:29:00,
2013-07-17 12:34:00,90.5,73.2,30.15,West,275,1.0,9.0,57,0.00,,BKN045,0.00,VWS V13.01,2013-07-17 16:34:00,
2013-07-17 12:39:00,91.4,72.4,30.15,NNW,329,3.0,13.0,54,0.00,,BKN045,0.00,VWS V13.01,2013-07-17 16:39:00,
2013-07-17 12:44:00,90.7,72.3,30.15,West,259,5.0,15.0,55,0.00,,BKN045,0.00,VWS V13.01,2013-07-17 16:44:00,
2013-07-17 12:49:00,90.1,72.3,30.14,WSW,241,9.0,15.0,56,0.00,,BKN045,0.00,VWS V13.01,2013-07-17 16:49:00,
2013-07-17 12:54:00,90.1,71.2,30.14,SW,232,5.0,11.0,54,0.00,,BKN045,0.00,VWS V13.01,2013-07-17 16:54:00,
2013-07-17 12:59:00,90.8,71.9,30.14,WSW,249,6.0,14.0,54,0.00,,BKN045,0.00,VWS V13.01,2013-07-17 16:59:00,
2013-07-17 13:04:00,92.1,73.1,30.14,West,274,4.0,11.0,54,0.00,,SCT060,0.00,VWS V13.01,2013-07-17 17:04:00,
2013-07-17 13:09:00,91.9,71.8,30.14,WNW,302,11.0,11.0,52,0.00,,SCT060,0.00,VWS V13.01,2013-07-17 17:09:00,
2013-07-17 13:14:00,92.6,71.3,30.14,SW,233,5.0,13.0,50,0.00,,SCT060,0.00,VWS V13.01,2013-07-17 17:14:00,
2013-07-17 13:19:00,93.4,71.4,30.14,NNW,328,3.0,9.0,49,0.00,,SCT060,0.00,VWS V13.01,2013-07-17 17:19:00,
2013-07-17 13:24:00,93.1,71.1,30.14,West,272,3.0,10.0,49,0.00,,SCT060,0.00,VWS V13.01,2013-07-17 17:24:00,
2013-07-17 13:29:00,92.8,72.0,30.14,WSW,238,7.0,12.0,51,0.00,,SCT060,0.00,VWS V13.01,2013-07-17 17:29:00,
2013-07-17 13:34:00,92.3,71.0,30.14,WNW,288,5.0,9.0,50,0.00,,SCT060,0.00,VWS V13.01,2013-07-17 17:34:00,
2013-07-17 13:39:00,90.6,72.2,30.14,West,271,11.0,13.0,55,0.00,,SCT060,0.00,VWS V13.01,2013-07-17 17:39:00,
2013-07-17 13:44:00,91.1,71.0,30.13,West,266,5.0,15.0,52,0.00,,SCT060,0.00,VWS V13.01,2013-07-17 17:44:00,
2013-07-17 13:49:00,91.3,71.8,30.13,SW,227,3.0,10.0,53,0.00,,SCT060,0.00,VWS V13.01,2013-07-17 17:49:00,
2013-07-17 13:54:00,90.4,73.1,30.13,WSW,239,7.0,10.0,57,0.00,,SCT060,0.00,VWS V13.01,2013-07-17 17:54:00,
2013-07-17 13:59:00,90.9,72.0,30.13,SW,227,4.0,9.0,54,0.00,,SCT060,0.00,VWS V13.01,2013-07-17 17:59:00,
2013-07-17 14:04:00,91.9,72.9,30.12,NW,317,6.0,12.0,54,0.00,,FEW055,0.00,VWS V13.01,2013-07-17 18:04:00,
2013-07-17 14:09:00,90.1,72.3,30.12,WSW,245,8.0,10.0,56,0.00,,FEW055,0.00,VWS V13.01,2013-07-17 18:09:00,
2013-07-17 14:14:00,90.7,72.3,30.12,NNW,327,2.0,12.0,55,0.00,,FEW055,0.00,VWS V13.01,2013-07-17 18:14:00,
2013-07-17 14:19:00,91.6,73.2,30.12,WSW,250,13.0,13.0,55,0.00,,FEW055,0.00,VWS V13.01,2013-07-17 18:19:00,
2013-07-17 14:24:00,89.6,72.9,30.12,SW,235,10.0,12.0,58,0.00,,FEW055,0.00,VWS V13.01,2013-07-17 18:24:00,
2013-07-17 14:29:00,89.1,72.4,30.12,WSW,238,7.0,11.0,58,0.00,,FEW055,0.00,VWS V13.01,2013-07-17 18:29:00,
2013-07-17 14:34:00,89.1,72.9,30.11,SW,235,9.0,12.0,59,0.00,,FEW055,0.00,VWS V13.01,2013-07-17 18:34:00,
2013-07-17 14:39:00,91.3,72.3,30.11,WSW,246,7.0,12.0,54,0.00,,FEW055,0.00,VWS V13.01,2013-07-17 18:39:00,
2013-07-17 14:44:00,91.5,73.1,30.10,WSW,250,7.0,13.0,55,0.00,,FEW055,0.00,VWS V13.01,2013-07-17 18:44:00,
2013-07-17 14:49:00,90.6,73.3,30.10,WSW,242,6.0,11.0,57,0.00,,FEW055,0.00,VWS V13.01,2013-07-17 18:49:00,
2013-07-17 14:54:00,90.8,72.9,30.10,WSW,256,4.0,10.0,56,0.00,,FEW055,0.00,VWS V13.01,2013-07-17 18:54:00,
2013-07-17 15:00:00,92.8,70.8,30.10,WSW,250,12.0,13.0,49,0.00,,FEW055,0.00,VWS V13.01,2013-07-17 19:00:00,
2013-07-17 15:05:00,92.3,71.6,30.10,WSW,240,7.0,12.0,51,0.00,,FEW060,0.00,VWS V13.01,2013-07-17 19:05:00,
2013-07-17 15:10:00,92.5,71.2,30.10,WNW,283,6.0,9.0,50,0.00,,FEW060,0.00,VWS V13.01,2013-07-17 19:10:00,
2013-07-17 15:15:00,93.6,71.0,30.10,WNW,290,10.0,13.0,48,0.00,,FEW060,0.00,VWS V13.01,2013-07-17 19:15:00,
2013-07-17 15:20:00,94.0,71.3,30.09,SW,233,6.0,10.0,48,0.00,,FEW060,0.00,VWS V13.01,2013-07-17 19:20:00,
2013-07-17 15:25:00,94.3,70.4,30.09,NW,310,4.0,13.0,46,0.00,,FEW060,0.00,VWS V13.01,2013-07-17 19:25:00,
2013-07-17 15:30:00,93.9,71.8,30.09,WSW,244,5.0,9.0,49,0.00,,FEW060,0.00,VWS V13.01,2013-07-17 19:30:00,
2013-07-17 15:35:00,92.2,73.2,30.09,WNW,300,3.0,8.0,54,0.00,,FEW060,0.00,VWS V13.01,2013-07-17 19:35:00,
2013-07-17 15:40:00,92.5,71.8,30.08,WSW,249,8.0,11.0,51,0.00,,FEW060,0.00,VWS V13.01,2013-07-17 19:40:00,
2013-07-17 15:45:00,91.8,69.9,30.08,WSW,249,7.0,15.0,49,0.00,,FEW060,0.00,VWS V13.01,2013-07-17 19:45:00,
2013-07-17 15:50:00,92.4,70.5,30.08,West,281,5.0,10.0,49,0.00,,FEW060,0.00,VWS V13.01,2013-07-17 19:50:00,
2013-07-17 15:55:00,93.4,70.2,30.08,West,269,3.0,10.0,47,0.00,,FEW060,0.00,VWS V13.01,2013-07-17 19:55:00,
2013-07-17 16:00:00,93.3,70.7,30.08,WNW,282,3.0,11.0,48,0.00,,FEW060,0.00,VWS V13.01,2013-07-17 20:00:00,
2013-07-17 16:05:00,93.1,69.9,30.08,WNW,286,2.0,13.0,47,0.00,,CLR,0.00,VWS V13.01,2013-07-17 20:05:00,
2013-07-17 16:10:00,92.7,71.3,30.08,WSW,249,8.0,9.0,50,0.00,,CLR,0.00,VWS V13.01,2013-07-17 20:10:00,
2013-07-17 16:15:00,93.1,71.7,30.08,SW,233,6.0,9.0,50,0.00,,CLR,0.00,VWS V13.01,2013-07-17 20:15:00,
2013-07-17 16:20:00,91.7,72.2,30.07,West,260,7.0,10.0,53,0.00,,CLR,0.00,VWS V13.01,2013-07-17 20:20:00,
2013-07-17 16:25:00,91.9,70.6,30.07,West,259,2.0,10.0,50,0.00,,CLR,0.00,VWS V13.01,2013-07-17 20:25:00,
2013-07-17 16:30:00,93.0,72.2,30.07,WSW,244,11.0,12.0,51,0.00,,CLR,0.00,VWS V13.01,2013-07-17 20:30:00,
2013-07-17 16:35:00,92.0,70.7,30.07,WSW,240,9.0,13.0,50,0.00,,CLR,0.00,VWS V13.01,2013-07-17 20:35:00,
2013-07-17 16:40:00,92.1,72.0,30.06,WSW,246,9.0,11.0,52,0.00,,CLR,0.00,VWS V13.01,2013-07-17 20:40:00,
2013-07-17 16:45:00,92.0,71.3,30.06,WSW,246,10.0,13.0,51,0.00,,CLR,0.00,VWS V13.01,2013-07-17 20:45:00,
2013-07-17 16:50:00,91.1,72.2,30.06,WSW,248,11.0,11.0,54,0.00,,CLR,0.00,VWS V13.01,2013-07-17 20:50:00,
2013-07-17 16:55:00,91.2,70.0,30.05,West,274,12.0,16.0,50,0.00,,CLR,0.00,VWS V13.01,2013-07-17 20:55:00,
2013-07-17 17:00:00,93.7,70.4,30.05,WSW,258,7.0,17.0,47,0.00,,CLR,0.00,VWS V13.01,2013-07-17 21:00:00,
2013-07-17 17:05:00,93.9,71.2,30.04,West,267,12.0,14.0,48,0.00,,CLR,0.00,VWS V13.01,2013-07-17 21:05:00,
2013-07-17 17:10:00,94.0,70.1,30.04,WNW,287,10.0,13.0,46,0.00,,CLR,0.00,VWS V13.01,2013-07-17 21:10:00,
2013-07-17 17:15:00,95.0,69.7,30.04,WSW,253,8.0,12.0,44,0.00,,CLR,0.00,VWS V13.01,2013-07-17 21:15:00,
2013-07-17 17:20:00,95.5,70.8,30.04,WSW,243,4.0,11.0,45,0.00,,CLR,0.00,VWS V13.01,2013-07-17 21:20:00,
2013-07-17 17:25:00,95.4,70.7,30.04,West,274,8.0,13.0,45,0.00,,CLR,0.00,VWS V13.01,2013-07-17 21:25:00,
2013-07-17 17:30:00,93.4,70.8,30.04,WSW,244,9.0,13.0,48,0.00,,CLR,0.00,VWS V13.01,2013-07-17 21:30:00,
2013-07-17 17:35:00,92.6,69.4,30.04,WSW,248,6.0,14.0,47,0.00,,CLR,0.00,VWS V13.01,2013-07-17 21:35:00,
2013-07-17 17:40:00,91.2,71.1,30.04,WSW,246,8.0,11.0,52,0.00,,CLR,0.00,VWS V13.01,2013-07-17 21:40:00,
2013-07-17 17:45:00,89.9,72.1,30.03,WSW,250,8.0,10.0,56,0.00,,CLR,0.00,VWS V13.01,2013-07-17 21:45:00,
2013-07-17 17:50:00,89.8,69.8,30.03,WSW,252,9.0,16.0,52,0.00,,CLR,0.00,VWS V13.01,2013-07-17 21:50:00,
2013-07-17 17:55:00,89.6,75.8,30.03,South,177,6.0,12.0,64,0.00,,CLR,0.00,VWS V13.01,2013-07-17 21:55:00,
2013-07-17 18:00:00,86.6,75.7,30.04,South,187,5.0,7.0,70,0.00,,CLR,0.00,VWS V13.01,2013-07-17 22:00:00,
2013-07-17 18:05:00,85.5,75.9,30.04,SW,221,0.0,5.0,73,0.00,,FEW070,0.00,VWS V13.01,2013-07-17 22:05:00,
2013-07-17 18:10:00,85.9,75.4,30.04,SW,221,0.0,1.0,71,0.00,,FEW070,0.00,VWS V13.01,2013-07-17 22:10:00,
2013-07-17 18:15:00,86.0,75.5,30.03,South,189,3.0,6.0,71,0.00,,FEW070,0.00,VWS V13.01,2013-07-17 22:15:00,
2013-07-17 18:20:00,85.9,76.2,30.03,South,189,1.0,5.0,73,0.00,,FEW070,0.00,VWS V13.01,2013-07-17 22:20:00,
2013-07-17 18:25:00,85.1,76.3,30.03,South,175,6.0,6.0,75,0.00,,FEW070,0.00,VWS V13.01,2013-07-17 22:25:00,
2013-07-17 18:30:00,84.5,75.3,30.04,SW,221,2.0,7.0,74,0.00,,FEW070,0.00,VWS V13.01,2013-07-17 22:30:00,
2013-07-17 18:35:00,85.2,75.2,30.04,West,264,1.0,6.0,72,0.00,,FEW070,0.00,VWS V13.01,2013-07-17 22:35:00,
2013-07-17 18:40:00,88.6,70.9,30.04,WSW,250,3.0,6.0,56,0.00,,FEW070,0.00,VWS V13.01,2013-07-17 22:40:00,
2013-07-17 18:45:00,91.6,70.9,30.04,WSW,258,2.0,6.0,51,0.00,,FEW070,0.00,VWS V13.01,2013-07-17 22:45:00,
2013-07-17 18:50:00,92.4,71.1,30.04,WSW,242,8.0,12.0,50,0.00,,FEW070,0.00,VWS V13.01,2013-07-17 22:50:00,
2013-07-17 18:56:00,91.7,71.6,30.04,WSW,243,9.0,12.0,52,0.00,,FEW070,0.00,VWS V13.01,2013-07-17 22:56:00,
2013-07-17 19:01:00,90.2,71.9,30.04,WSW,241,5.0,10.0,55,0.00,,FEW070,0.00,VWS V13.01,2013-07-17 23:01:00,
2013-07-17 19:06:00,89.5,72.3,30.04,WSW,246,7.0,10.0,57,0.00,,FEW075,0.00,VWS V13.01,2013-07-17 23:06:00,
2013-07-17 19:11:00,89.1,73.9,30.04,WSW,240,6.0,8.0,61,0.00,,FEW075,0.00,VWS V13.01,2013-07-17 23:11:00,
2013-07-17 19:16:00,88.2,73.6,30.04,WSW,250,3.0,8.0,62,0.00,,FEW075,0.00,VWS V13.01,2013-07-17 23:16:00,
2013-07-17 19:21:00,88.0,73.4,30.04,WNW,289,2.0,6.0,62,0.00,,FEW075,0.00,VWS V13.01,2013-07-17 23:21:00,
2013-07-17 19:26:00,90.2,71.9,30.03,NW,306,7.0,8.0,55,0.00,,FEW075,0.00,VWS V13.01,2013-07-17 23:26:00,
2013-07-17 19:31:00,91.9,70.6,30.04,WNW,284,5.0,8.0,50,0.00,,FEW075,0.00,VWS V13.01,2013-07-17 23:31:00,
2013-07-17 19:36:00,92.3,71.0,30.03,WNW,284,4.0,8.0,50,0.00,,FEW075,0.00,VWS V13.01,2013-07-17 23:36:00,
2013-07-17 19:41:00,92.2,70.9,30.03,WNW,292,3.0,8.0,50,0.00,,FEW075,0.00,VWS V13.01,2013-07-17 23:41:00,
2013-07-17 19:46:00,92.2,70.9,30.03,West,260,4.0,7.0,50,0.00,,FEW075,0.00,VWS V13.01,2013-07-17 23:46:00,
2013-07-17 19:51:00,92.1,70.8,30.03,West,263,3.0,9.0,50,0.00,,FEW075,0.00,VWS V13.01,2013-07-17 23:51:00,
2013-07-17 19:56:00,92.0,71.9,30.03,West,275,4.0,7.0,52,0.00,,FEW075,0.00,VWS V13.01,2013-07-17 23:56:00,
2013-07-17 20:01:00,90.8,74.0,30.04,WSW,245,5.0,6.0,58,0.00,,CLR,0.00,VWS V13.01,2013-07-18 00:01:00,
2013-07-17 20:06:00,88.8,73.6,30.03,WSW,254,5.0,6.0,61,0.00,,CLR,0.00,VWS V13.01,2013-07-18 00:06:00,
2013-07-17 20:11:00,88.1,72.5,30.04,West,277,3.0,6.0,60,0.00,,CLR,0.00,VWS V13.01,2013-07-18 00:11:00,
2013-07-17 20:16:00,88.7,71.5,30.04,WNW,296,4.0,7.0,57,0.00,,CLR,0.00,VWS V13.01,2013-07-18 00:16:00,
2013-07-17 20:21:00,89.9,71.6,30.04,West,267,7.0,7.0,55,0.00,,CLR,0.00,VWS V13.01,2013-07-18 00:21:00,
2013-07-17 20:26:00,90.2,71.3,30.04,West,279,2.0,6.0,54,0.00,,CLR,0.00,VWS V13.01,2013-07-18 00:26:00,
2013-07-17 20:31:00,90.2,71.3,30.04,West,279,1.0,5.0,54,0.00,,CLR,0.00,VWS V13.01,2013-07-18 00:31:00,
2013-07-17 20:36:00,90.0,71.7,30.04,WNW,286,6.0,6.0,55,0.00,,CLR,0.00,VWS V13.01,2013-07-18 00:36:00,
2013-07-17 20:41:00,89.7,71.4,30.04,WNW,286,2.0,5.0,55,0.00,,CLR,0.00,VWS V13.01,2013-07-18 00:41:00,
2013-07-17 20:46:00,89.4,71.1,30.04,NW,310,1.0,5.0,55,0.00,,CLR,0.00,VWS V13.01,2013-07-18 00:46:00,
2013-07-17 20:51:00,89.3,71.0,30.04,WNW,299,4.0,7.0,55,0.00,,CLR,0.00,VWS V13.01,2013-07-18 00:51:00,
2013-07-17 20:56:00,89.1,71.4,30.04,West,281,2.0,4.0,56,0.00,,CLR,0.00,VWS V13.01,2013-07-18 00:56:00,
2013-07-17 21:01:00,88.9,71.2,30.04,WNW,295,1.0,5.0,56,0.00,,SCT080,0.00,VWS V13.01,2013-07-18 01:01:00,
2013-07-17 21:06:00,88.7,71.5,30.04,WNW,286,0.0,3.0,57,0.00,,SCT080,0.00,VWS V13.01,2013-07-18 01:06:00,
2013-07-17 21:11:00,88.4,71.8,30.04,WNW,286,0.0,3.0,58,0.00,,SCT080,0.00,VWS V13.01,2013-07-18 01:11:00,
2013-07-17 21:12:00,88.3,71.7,30.04,WNW,286,0.0,3.0,58,0.00,,SCT080,0.00,VWS V13.01,2013-07-18 01:12:00,
2013-07-17 21:17:00,88.1,72.0,30.04,WNW,284,2.0,3.0,59,0.00,,SCT080,0.00,VWS V13.01,2013-07-18 01:17:00,
2013-07-17 21:22:00,87.8,71.7,30.04,WNW,286,1.0,3.0,59,0.00,,SCT080,0.00,VWS V13.01,2013-07-18 01:22:00,
2013-07-17 21:27:00,87.5,71.9,30.04,WNW,288,0.0,3.0,60,0.00,,SCT080,0.00,VWS V13.01,2013-07-18 01:27:00,
2013-07-17 21:32:00,87.2,71.6,30.04,WNW,288,1.0,2.0,60,0.00,,SCT080,0.00,VWS V13.01,2013-07-18 01:32:00,
2013-07-17 21:37:00,86.9,71.8,30.05,WNW,288,0.0,2.0,61,0.00,,SCT080,0.00,VWS V13.01,2013-07-18 01:37:00,
2013-07-17 21:42:00,86.6,71.6,30.04,WNW,288,1.0,1.0,61,0.00,,SCT080,0.00,VWS V13.01,2013-07-18 01:42:00,
2013-07-17 21:47:00,86.3,71.8,30.04,WNW,288,0.0,2.0,62,0.00,,SCT080,0.00,VWS V13.01,2013-07-18 01:47:00,
2013-07-17 21:52:00,86.0,71.5,30.04,WNW,291,2.0,3.0,62,0.00,,SCT080,0.00,VWS V13.01,2013-07-18 01:52:00,
2013-07-17 21:57:00,85.9,71.4,30.04,WNW,295,0.0,4.0,62,0.00,,SCT080,0.00,VWS V13.01,2013-07-18 01:57:00,
2013-07-17 22:02:00,85.7,71.2,30.05,WNW,293,1.0,3.0,62,0.00,,CLR,0.00,VWS V13.01,2013-07-18 02:02:00,
2013-07-17 22:07:00,85.6,71.1,30.05,WNW,285,2.0,5.0,62,0.00,,CLR,0.00,VWS V13.01,2013-07-18 02:07:00,
2013-07-17 22:12:00,85.5,71.0,30.05,NW,308,1.0,3.0,62,0.00,,CLR,0.00,VWS V13.01,2013-07-18 02:12:00,
2013-07-17 22:18:00,85.3,70.8,30.05,NW,308,0.0,1.0,62,0.00,,CLR,0.00,VWS V13.01,2013-07-18 02:18:00,
2013-07-17 22:23:00,85.1,71.1,30.04,NW,308,0.0,0.0,63,0.00,,CLR,0.00,VWS V13.01,2013-07-18 02:23:00,
2013-07-17 22:28:00,84.8,71.3,30.04,NW,308,0.0,1.0,64,0.00,,CLR,0.00,VWS V13.01,2013-07-18 02:28:00,
2013-07-17 22:33:00,84.6,71.1,30.05,NW,308,0.0,3.0,64,0.00,,CLR,0.00,VWS V13.01,2013-07-18 02:33:00,
2013-07-17 22:38:00,84.5,71.4,30.05,NW,308,0.0,3.0,65,0.00,,CLR,0.00,VWS V13.01,2013-07-18 02:38:00,
2013-07-17 22:43:00,84.3,71.3,30.04,NW,308,0.0,3.0,65,0.00,,CLR,0.00,VWS V13.01,2013-07-18 02:43:00,
2013-07-17 22:48:00,84.1,71.5,30.05,NW,308,0.0,0.0,66,0.00,,CLR,0.00,VWS V13.01,2013-07-18 02:48:00,
2013-07-17 22:53:00,83.8,71.7,30.05,NW,308,0.0,0.0,67,0.00,,CLR,0.00,VWS V13.01,2013-07-18 02:53:00,
2013-07-17 22:58:00,83.4,71.3,30.05,NW,308,0.0,0.0,67,0.00,,CLR,0.00,VWS V13.01,2013-07-18 02:58:00,
2013-07-17 23:03:00,83.0,71.4,30.05,NW,308,0.0,0.0,68,0.00,,CLR,0.00,VWS V13.01,2013-07-18 03:03:00,
2013-07-17 23:08:00,82.7,71.5,30.05,NW,308,0.0,1.0,69,0.00,,CLR,0.00,VWS V13.01,2013-07-18 03:08:00,
2013-07-17 23:13:00,82.3,71.5,30.04,NW,308,0.0,1.0,70,0.00,,CLR,0.00,VWS V13.01,2013-07-18 03:13:00,
2013-07-17 23:18:00,82.0,71.3,30.04,NW,308,0.0,0.0,70,0.00,,CLR,0.00,VWS V13.01,2013-07-18 03:18:00,
2013-07-17 23:23:00,81.7,71.4,30.05,NW,308,0.0,0.0,71,0.00,,CLR,0.00,VWS V13.01,2013-07-18 03:23:00,
2013-07-17 23:28:00,81.5,71.2,30.05,NW,308,0.0,0.0,71,0.00,,CLR,0.00,VWS V13.01,2013-07-18 03:28:00,
2013-07-17 23:33:00,81.2,70.9,30.05,NW,308,0.0,1.0,71,0.00,,CLR,0.00,VWS V13.01,2013-07-18 03:33:00,
2013-07-17 23:38:00,81.1,70.8,30.05,NW,308,0.0,1.0,71,0.00,,CLR,0.00,VWS V13.01,2013-07-18 03:38:00,
2013-07-17 23:43:00,81.1,70.8,30.05,NW,308,0.0,1.0,71,0.00,,CLR,0.00,VWS V13.01,2013-07-18 03:43:00,
2013-07-17 23:48:00,81.0,71.1,30.05,NW,308,0.0,1.0,72,0.00,,CLR,0.00,VWS V13.01,2013-07-18 03:48:00,
2013-07-17 23:53:00,80.8,71.3,30.06,NW,308,0.0,0.0,73,0.00,,CLR,0.00,VWS V13.01,2013-07-18 03:53:00,
2013-07-17 23:58:00,80.4,71.0,30.06,NW,308,0.0,1.0,73,0.00,,CLR,0.00,VWS V13.01,2013-07-18 03:58:00,